Weather History for KRKR - September, 2013

Change the Weather History Date:

Monday, September 30, 2013

  Actual Average (KFSM) Record (KFSM)
Temperature  
Mean Temperature 72 °F 68 °F  
Max Temperature 82 °F 80 °F 99 °F (1953)
Min Temperature 62 °F 56 °F 37 °F (1984)
Degree Days  
Heating Degree Days 0 2  
Month to date heating degree days 17  
Since 1 July heating degree days 17  
Cooling Degree Days 7 5  
Month to date cooling degree days 283  
Year to date cooling degree days 1978  
Growing Degree Days 22 (Base 50)    
Moisture  
Dew Point 68 °F    
Average Humidity 90    
Maximum Humidity 100    
Minimum Humidity 66    
Precipitation  
Precipitation 0.00 in 0.13 in 2.06 in (1883)
Month to date precipitation 4.05  
Year to date precipitation 33.41  
Sea Level Pressure  
Sea Level Pressure 29.90 in    
Wind  
Wind Speed 0 mph (SE)    
Max Wind Speed 9 mph    
Max Gust Speed -    
Visibility 6 miles    
Events Fog    
T = Trace of Precipitation, MM = Missing Value Source: NWS Daily Summary

Daily Weather History Graph

Daily Weather History Graph

Search for Another Location

Airport or City:

Trip Planner

Search our weather history database for the weather conditions in past years. The results will help you decide how hot, cold, wet, or windy it might be!

Date:

Astronomy

Sep. 30, 2013 Rise Set
Actual Time 7:12 AM CDT 7:03 PM CDT
Civil Twilight 6:47 AM CDT 7:28 PM CDT
Nautical Twilight 6:18 AM CDT 7:57 PM CDT
Astronomical Twilight 5:48 AM CDT 8:27 PM CDT
Moon 2:59 AM CDT (9/30) 4:27 PM CDT (9/30)
Length of Visible Light 12h 41m
Length of Day
11h 50m
Waning Crescent, 19% of the Moon is Illuminated
Sep 30
Waning Crescent
Oct 4
New
Oct 11
First Quarter
Oct 18
Full
Oct 26
Last Quarter

Hourly Weather History & Observations

Time (CDT) Temp. Heat Index Dew Point Humidity Pressure Visibility Wind Dir Wind Speed Gust Speed Precip Events Conditions
12:15 AM 66.2 °F - 66.2 °F 100% 29.94 in 7.0 mi Calm Calm - N/A   Unknown
12:35 AM 66.2 °F - 66.2 °F 100% 29.94 in 5.0 mi Calm Calm - N/A   Mist
12:55 AM 64.4 °F - 64.4 °F 100% 29.94 in 5.0 mi Calm Calm - N/A   Mist
1:15 AM 64.4 °F - 64.4 °F 100% 29.93 in 1.0 mi Calm Calm - N/A   Mist
1:35 AM 62.6 °F - 62.6 °F 100% 29.93 in 1.0 mi Calm Calm - N/A   Mist
1:55 AM 62.6 °F - 62.6 °F 100% 29.93 in 0.2 mi Calm Calm - N/A Fog Fog
2:15 AM 62.6 °F - 62.6 °F 100% 29.93 in 0.5 mi Calm Calm - N/A Fog Fog
2:35 AM 62.6 °F - 62.6 °F 100% 29.93 in 0.2 mi Calm Calm - N/A Fog Fog
2:55 AM 62.6 °F - 62.6 °F 100% 29.93 in 0.2 mi Calm Calm - N/A Fog Fog
3:15 AM 62.6 °F - 62.6 °F 100% 29.92 in 0.2 mi Calm Calm - N/A Fog Fog
3:35 AM 62.6 °F - 62.6 °F 100% 29.91 in 0.2 mi Calm Calm - N/A Fog Fog
3:55 AM 62.6 °F - 62.6 °F 100% 29.91 in 0.2 mi Calm Calm - N/A Fog Fog
4:15 AM 62.6 °F - 62.6 °F 100% 29.91 in 1.0 mi Calm Calm - N/A   Mist
4:35 AM 62.6 °F - 62.6 °F 100% 29.91 in 1.0 mi Calm Calm - N/A   Mist
4:55 AM 62.6 °F - 62.6 °F 100% 29.90 in 0.5 mi Calm Calm - N/A Fog Fog
5:15 AM 62.6 °F - 62.6 °F 100% 29.91 in 0.8 mi Calm Calm - N/A   Mist
5:35 AM 62.6 °F - 62.6 °F 100% 29.90 in 2.5 mi Calm Calm - N/A   Mist
5:55 AM 62.6 °F - 62.6 °F 100% 29.91 in 0.2 mi Calm Calm - N/A Fog Fog
6:15 AM 62.6 °F - 62.6 °F 100% 29.91 in 1.2 mi Calm Calm - N/A   Mist
6:35 AM 62.6 °F - 62.6 °F 100% 29.91 in 5.0 mi Calm Calm - N/A   Mist
6:55 AM 62.6 °F - 62.6 °F 100% 29.92 in 7.0 mi Calm Calm - N/A   Unknown
7:15 AM 62.6 °F - 62.6 °F 100% 29.92 in 1.2 mi Calm Calm - N/A   Mist
7:35 AM 62.6 °F - 62.6 °F 100% 29.92 in 0.5 mi Calm Calm - N/A Fog Fog
7:55 AM 62.6 °F - 62.6 °F 100% 29.93 in 0.2 mi Calm Calm - N/A Fog Fog
8:15 AM 64.4 °F - 64.4 °F 100% 29.93 in 0.2 mi Calm Calm - N/A Fog Fog
8:35 AM 64.4 °F - 64.4 °F 100% 29.94 in 0.2 mi Calm Calm - N/A Fog Fog
8:55 AM 64.4 °F - 64.4 °F 100% 29.94 in 3.0 mi Calm Calm - N/A   Mist
9:15 AM 66.2 °F - 66.2 °F 100% 29.94 in 3.0 mi Calm Calm - N/A   Mist
9:35 AM 66.2 °F - 66.2 °F 100% 29.94 in 3.0 mi Calm Calm - N/A   Mist
9:55 AM 66.2 °F - 66.2 °F 100% 29.94 in 3.0 mi Calm Calm - N/A   Mist
10:15 AM 66.2 °F - 66.2 °F 100% 29.93 in 2.5 mi Calm Calm - N/A   Mist
10:35 AM 68.0 °F - 68.0 °F 100% 29.93 in 4.0 mi Calm Calm - N/A   Mist
10:55 AM 68.0 °F - 68.0 °F 100% 29.93 in 7.0 mi Calm Calm - N/A   Unknown
11:15 AM 71.6 °F - 71.6 °F 100% 29.93 in 10.0 mi Calm Calm - N/A   Unknown
11:35 AM 71.6 °F - 71.6 °F 100% 29.93 in 10.0 mi Calm Calm - N/A   Unknown
11:55 AM 73.4 °F - 71.6 °F 94% 29.93 in 10.0 mi Calm Calm - N/A   Unknown
12:15 PM 78.8 °F - 71.6 °F 78% 29.92 in 10.0 mi Calm Calm - N/A   Unknown
12:35 PM 78.8 °F - 71.6 °F 78% 29.91 in 10.0 mi Calm Calm - N/A   Unknown
12:55 PM 78.8 °F - 69.8 °F 74% 29.90 in 10.0 mi SSW 3.5 mph - N/A   Unknown
1:15 PM 80.6 °F 83.9 °F 69.8 °F 70% 29.90 in 10.0 mi ESE 3.5 mph - N/A   Unknown
1:35 PM 80.6 °F 83.9 °F 69.8 °F 70% 29.89 in 10.0 mi Calm Calm - N/A   Unknown
1:55 PM 80.6 °F 83.9 °F 69.8 °F 70% 29.88 in 10.0 mi Calm Calm - N/A   Unknown
2:15 PM 80.6 °F 83.9 °F 69.8 °F 70% 29.88 in 10.0 mi Calm Calm - N/A   Unknown
2:35 PM 80.6 °F 83.9 °F 69.8 °F 70% 29.87 in 10.0 mi Calm Calm - N/A   Unknown
2:55 PM 80.6 °F 83.9 °F 69.8 °F 70% 29.87 in 10.0 mi Calm Calm - N/A   Unknown
3:15 PM 80.6 °F 83.9 °F 69.8 °F 70% 29.86 in 10.0 mi Calm Calm - N/A   Unknown
3:35 PM 80.6 °F 83.9 °F 69.8 °F 70% 29.86 in 10.0 mi Calm Calm - N/A   Unknown
3:55 PM 80.6 °F 83.9 °F 69.8 °F 70% 29.85 in 10.0 mi Calm Calm - N/A   Unknown
4:15 PM 82.4 °F 86.3 °F 69.8 °F 66% 29.85 in 10.0 mi SE 9.2 mph - N/A   Unknown
4:35 PM 82.4 °F 86.3 °F 69.8 °F 66% 29.85 in 10.0 mi SSE 6.9 mph - N/A   Unknown
4:55 PM 82.4 °F 86.3 °F 69.8 °F 66% 29.85 in 10.0 mi SSE 4.6 mph - N/A   Unknown
5:15 PM 82.4 °F 86.3 °F 69.8 °F 66% 29.85 in 10.0 mi Calm Calm - N/A   Unknown
5:35 PM 82.4 °F 86.3 °F 69.8 °F 66% 29.85 in 10.0 mi SE 3.5 mph - N/A   Unknown
5:55 PM 80.6 °F 83.9 °F 69.8 °F 70% 29.85 in 10.0 mi Calm Calm - N/A   Unknown
6:15 PM 80.6 °F 84.6 °F 71.6 °F 74% 29.85 in 10.0 mi Calm Calm - N/A   Unknown
6:35 PM 78.8 °F - 71.6 °F 78% 29.85 in 10.0 mi ESE 3.5 mph - N/A   Unknown
6:55 PM 78.8 °F - 71.6 °F 78% 29.86 in 10.0 mi ESE 4.6 mph - N/A   Unknown
7:15 PM 78.8 °F - 71.6 °F 78% 29.86 in 10.0 mi Calm Calm - N/A   Unknown
7:35 PM 77.0 °F - 71.6 °F 83% 29.87 in 10.0 mi Calm Calm - N/A   Unknown
7:55 PM 77.0 °F - 71.6 °F 83% 29.87 in 10.0 mi ESE 3.5 mph - N/A   Unknown
8:15 PM 77.0 °F - 73.4 °F 89% 29.87 in 10.0 mi Calm Calm - N/A   Unknown
8:35 PM 77.0 °F - 73.4 °F 89% 29.88 in 10.0 mi Calm Calm - N/A   Unknown
8:55 PM 73.4 °F - 71.6 °F 94% 29.88 in 10.0 mi ESE 3.5 mph - N/A   Unknown
9:15 PM 71.6 °F - 71.6 °F 100% 29.89 in 10.0 mi Calm Calm - N/A   Unknown
9:35 PM 71.6 °F - 69.8 °F 94% 29.89 in 10.0 mi Calm Calm - N/A   Unknown
9:55 PM 71.6 °F - 69.8 °F 94% 29.90 in 10.0 mi Calm Calm - N/A   Unknown
10:15 PM 71.6 °F - 71.6 °F 100% 29.90 in 7.0 mi Calm Calm - N/A   Unknown
10:35 PM 71.6 °F - 71.6 °F 100% 29.90 in 7.0 mi Calm Calm - N/A   Unknown
10:55 PM 71.6 °F - 71.6 °F 100% 29.90 in 5.0 mi Calm Calm - N/A   Mist
11:15 PM 69.8 °F - 69.8 °F 100% 29.90 in 5.0 mi Calm Calm - N/A   Mist
11:35 PM 71.6 °F - 71.6 °F 100% 29.90 in 7.0 mi Calm Calm - N/A   Unknown
11:55 PM 68.0 °F - 68.0 °F 100% 29.90 in 5.0 mi Calm Calm - N/A   Mist